Regional Weather Roundup
Issued by NWS Upton, NY

Current Version | Previous Version | Graphics & Text | Print | Product List | Glossary Off
Versions: 1 2 3 4 5 6 7 8 9 10 11 12 13 14 15 16 17 18 19 20 21 22 23 24 25 26 27 28 29 30 31 32 33 34 35 36 37 38 39 40 41 42 43 44 45 46 47 48 49 50

000
ASUS41 KOKX 180205
RWROKX
REGIONAL WEATHER ROUNDUP
NATIONAL WEATHER SERVICE NEW YORK NY
1000 PM EDT WED SEP 17 2014

NOTE: "FAIR" INDICATES FEW OR NO CLOUDS BELOW 12,000 FEET WITH NO
SIGNIFICANT WEATHER AND/OR OBSTRUCTIONS TO VISIBILITY.

NYZ071-072-176-178-NJZ106-104-180300-
NEW YORK CITY METRO AREA


CITY           SKY/WX    TMP DP  RH WIND       PRES   REMARKS
CENTRAL PARK   CLEAR     64  46  52 CALM      30.01S
LAGUARDIA APRT PTCLDY    66  50  56 S6        29.98S
KENNEDY INTL   PTCLDY    64  52  64 CALM      30.00R
NEWARK/LIBERTY PTCLDY    64  53  67 S7        29.99R
BRNX BOT. GARD   N/A     59  50  72 E1        30.01R
TETERBORO      CLEAR     63  45  51 CALM      29.97S
$$

NYZ177-179-078>081-180300-
LONG ISLAND NEW YORK

CITY           SKY/WX    TMP DP  RH WIND       PRES   REMARKS
FARMINGDALE    CLEAR     59  50  72 CALM      30.00S
ISLIP          PTCLDY    55  48  77 CALM      29.99S
SHIRLEY        CLEAR     52  47  83 CALM      30.00S
WESTHAMPTON    CLEAR     47  42  83 CALM      30.01S
MONTAUK POINT    N/A     62  51  67 SW5       30.00F
$$

NYZ052-065-067-180300-
HUDSON VALLEY

CITY           SKY/WX    TMP DP  RH WIND       PRES   REMARKS
WHITE PLAINS   CLEAR     54  46  74 CALM      29.99S
NEWBURGH       PTCLDY    54  50  87 CALM      30.00
MONTGOMERY     PTCLDY    51  48  89 CALM      29.98F
POUGHKEEPSIE   PTCLDY    52  48  86 CALM      29.98S
ALBANY         CLEAR     52  47  83 CALM      29.98S
$$

NJZ001-105-106-008-010-013-015-019>022-104-180300-
NEW JERSEY

CITY           SKY/WX    TMP DP  RH WIND       PRES   REMARKS
NEWARK/LIBERTY PTCLDY    64  53  67 S7        29.99R
TETERBORO      CLEAR     63  45  51 CALM      29.97S
CALDWELL       CLEAR     55  47  74 CALM      29.99S
MORRISTOWN     CLEAR     52  48  87 CALM      30.00R
SOMERVILLE     CLEAR     51  48  89 CALM      29.98R
LINDEN         FAIR      66  55  66 CALM      30.01S
SUSSEX         CLEAR     52  48  86 CALM      30.00S
ANDOVER          N/A     49  48  97 CALM      30.00S
TRENTON        CLEAR     60  52  74 S5        29.99R
MILLVILLE      CLEAR     55  53  93 CALM      29.99S
ATLANTIC CITY  CLEAR     54  52  93 CALM      29.99S
WRIGHTSTOWN    CLEAR     57  53  87 SE2       29.98R
TOMS RIVER     CLEAR     52  46  82 CALM      30.00S
BELMAR         CLEAR     55  48  76 CALM      30.00S
$$

PAZ047>061-062-071-180300-
EASTERN PENNSYLVANIA

CITY           SKY/WX    TMP DP  RH WIND       PRES   REMARKS
PHILADELPHIA   PTCLDY    64  52  64 S7        29.99R
ALLENTOWN      CLEAR     55  47  74 CALM      29.99S
SCRANTON       CLEAR     54  43  66 E7        29.99S
$$

CTZ002-004>006-009-010-012-RIZ004-006-007-MAZ004-011-015-180300-
SOUTHERN NEW ENGLAND
 IN CT

CITY           SKY/WX    TMP DP  RH WIND       PRES   REMARKS
BRADLEY INTL   PTCLDY    57  48  72 CALM      29.97F
HARTFORD       CLEAR     55  50  83 CALM      29.98F
DANBURY        CLEAR     49  47  93 SW3       30.01S
WTRBRY/OXFORD  CLEAR     48  43  81 CALM      30.01S
BRIDGEPORT     CLEAR     60  49  66 CALM      29.99S
MERIDEN        CLEAR     50  46  86 CALM      29.99S
NEW HAVEN      CLEAR     54  47  77 CALM      29.99S
CHESTER        FAIR      54  48  82 CALM      30.00S
GROTON         CLEAR     55  51  86 NE5       29.99S
WILLIMANTIC    CLEAR     53  49  86 CALM      30.00S

 IN RI

CITY           SKY/WX    TMP DP  RH WIND       PRES   REMARKS
PROVIDENCE     PTCLDY    58  47  66 W5        29.99S
BLOCK ISLAND   CLEAR     57  46  67 W5        29.99S
WESTERLY       CLEAR     52  49  89 CALM      30.00S

 IN MA

CITY           SKY/WX    TMP DP  RH WIND       PRES   REMARKS
BOSTON         CLEAR     63  44  50 NW3       29.97F
WORCESTER      CLEAR     52  44  74 W5        29.99F
WESTFIELD      CLEAR     51  48  89 CALM      29.98F
PROVINCETOWN   CLEAR     61  52  72 SW10      29.98S
NANTUCKET      CLEAR     58  50  75 SW6       29.99S
$$

ANZ330-335-338-340-345-350-353-355-180300-
COASTAL MARINE OBSERVATIONS


STATION/POSITION TIME  SKY/WX   TEMP    WIND        PRES    VSBY  WAVE
                                AIR SEA DIR/SP/G                  HT/PER
                 (UTC)          (F)     (DEG/KT/KT) (MB)    (MI)  (FT/S)
NY HARB ENTRANCE 0200            67 70  210/  6/  8 1016.1          3/14
4S FIRE IS       0200               70                N/A           4/14
23SW MTP         0200                                 N/A           4/12
HUDSON CANYON    0200            66 74  360/  6/  8 1015.6          4/14
EXECUTION ROCKS  NOT AVBL
WESTERN LI SOUND 0200            66     160/  8/ 10   N/A           0
CENTRAL LI SOUND 0100            68 71  320/  4/  6   N/A           1
EASTERN LI SOUND 0100            65 68  300/  8/ 10   N/A
ROBBINS REEF     0200            65     190/  9/ 11 1014.3
$$


>>>>>>>>>>>>>>>>>>>>>>>>>>>> KEY <<<<<<<<<<<<<<<<<<<<<<<<<<<
>                                                          <
>     SKY/WX - SKY CONDITION/PRESENT WEATHER               <
>     TMP    - TEMPERATURE IN FAHRENHEIT                   <
>     DP     - DEWPOINT IN FAHRENHEIT                      <
>     RH     - RELATIVE HUMIDITY IN PERCENT                <
>     WIND   - DIRECTION AND SPEED IN MPH                  <
>     PRES   - MEAN SEA LEVEL PRESSURE IN INCHES OF HG     <
>     WCI    - WIND CHILL INDEX                            <
>     VSB    - VISIBILITY IN MILES                         <
>     HX     - HEAT INDEX                                  <
>     TC     - TEMPERATURE IN CELSIUS                      <
>     VRB    - VARIABLE WIND DIRECTION                     <
>                                                          <
>>>>>>>>>>>>>>>>>>>>>>>>>>>> KEY <<<<<<<<<<<<<<<<<<<<<<<<<<<




USA.gov is the U.S. government's official web portal to all federal, state and local government web resources and services.